Alexandria, MN

7:44 PM CST on February 24, 2017 (GMT -0600)
Chandler

Weather History for KAXN - December, 2012

Change the Weather History Date:

Sunday, December 9, 2012

  Actual Average Record
Temperature  
Mean Temperature 16 °F -  
Max Temperature 28 °F 22 °F 50 °F (1990)
Min Temperature 3 °F 7 °F -24 °F (1977)
Degree Days  
Heating Degree Days 50    
Moisture  
Dew Point 19 °F    
Average Humidity 85    
Maximum Humidity 93    
Minimum Humidity 70    
Precipitation  
Precipitation 0.08 in - - ()
Sea Level Pressure  
Sea Level Pressure 29.97 in    
Wind  
Wind Speed 16 mph (NE)    
Max Wind Speed 24 mph    
Max Gust Speed 33 mph    
Visibility 2 miles    
Events Fog , Snow    
Averages and records for this station are not official NWS values.
T = Trace of Precipitation, MM = Missing Value Source: NWS Daily Summary

Daily Weather History Graph

Daily Weather History Graph

Search for Another Location

Airport or City:

Trip Planner

Search our weather history database for the weather conditions in past years. The results will help you decide how hot, cold, wet, or windy it might be!

Date:

Astronomy

Dec. 09, 2012 Rise Set
Actual Time 7:51 AM CST 4:36 PM CST
Civil Twilight 7:17 AM CST 5:10 PM CST
Nautical Twilight 6:39 AM CST 5:48 PM CST
Astronomical Twilight 6:03 AM CST 6:24 PM CST
Moon 3:15 AM CST (12/9) 1:52 PM CST (12/9)
Length of Visible Light 9h 53m
Length of Day
8h 45m
Waning Crescent, 18% of the Moon is Illuminated
Dec 9
Waning Crescent
Dec 13
New
Dec 19
First Quarter
Dec 28
Full
Jan 4
Last Quarter

Hourly Weather History & Observations

Time (CST) Temp. Windchill Dew Point Humidity Pressure Visibility Wind Dir Wind Speed Gust Speed Precip Events Conditions
12:18 AM 28.4 °F 18.0 °F 24.8 °F 86% 29.94 in 0.5 mi East 12.7 mph - 0.02 in Fog , Snow Snow
12:34 AM 28.4 °F 18.0 °F 24.8 °F 86% 29.93 in 0.5 mi East 12.7 mph - 0.02 in Fog , Snow Snow
12:53 AM 28.0 °F 17.0 °F 25.0 °F 88% 29.99 in 0.8 mi East 13.8 mph - 0.03 in Snow Light Snow
1:02 AM 28.4 °F 17.0 °F 24.8 °F 86% 29.92 in 1.0 mi East 15.0 mph - 0.00 in Snow Light Snow
1:10 AM 28.4 °F 18.0 °F 24.8 °F 86% 29.92 in 1.0 mi East 12.7 mph - 0.00 in Snow Light Snow
1:19 AM 28.4 °F 17.0 °F 24.8 °F 86% 29.91 in 0.8 mi East 15.0 mph - 0.00 in Snow Light Snow
1:29 AM 28.4 °F 15.8 °F 24.8 °F 86% 29.91 in 1.0 mi East 18.4 mph - 0.00 in Snow Light Snow
1:46 AM 28.4 °F 17.0 °F 24.8 °F 86% 29.91 in 0.8 mi East 15.0 mph 25.3 mph 0.00 in Snow Light Snow
1:53 AM 28.0 °F 15.3 °F 25.0 °F 88% 29.97 in 0.8 mi East 18.4 mph - 0.00 in Snow Light Snow
2:01 AM 28.4 °F 17.5 °F 24.8 °F 86% 29.91 in 0.5 mi East 13.8 mph 24.2 mph 0.01 in Fog , Snow Snow
2:38 AM 28.4 °F 17.5 °F 26.6 °F 93% 29.91 in 0.2 mi East 13.8 mph - 0.02 in Fog , Snow Snow
2:51 AM 28.4 °F 17.5 °F 24.8 °F 86% 29.91 in 1.0 mi East 13.8 mph - 0.03 in Snow Light Snow
2:52 AM 28.0 °F 17.0 °F 25.0 °F 88% 29.98 in 1.0 mi East 13.8 mph - 0.03 in Snow Light Snow
3:07 AM 28.4 °F 18.5 °F 24.8 °F 86% 29.91 in 1.0 mi East 11.5 mph - 0.00 in Snow Light Snow
3:15 AM 28.4 °F 18.0 °F 24.8 °F 86% 29.91 in 1.5 mi East 12.7 mph - 0.00 in Snow Light Snow
3:23 AM 28.4 °F 17.5 °F 24.8 °F 86% 29.91 in 1.2 mi East 13.8 mph - 0.00 in Snow Light Snow
3:36 AM 28.4 °F 17.5 °F 24.8 °F 86% 29.90 in 1.0 mi East 13.8 mph - 0.00 in Snow Light Snow
3:43 AM 28.4 °F 17.5 °F 24.8 °F 86% 29.90 in 1.0 mi East 13.8 mph - 0.00 in Snow Light Snow
3:53 AM 28.0 °F 17.5 °F 25.0 °F 88% 29.96 in 1.5 mi East 12.7 mph - 0.00 in Snow Light Snow
4:04 AM 28.4 °F 18.0 °F 24.8 °F 86% 29.89 in 2.5 mi East 12.7 mph - 0.00 in Snow Light Snow
4:22 AM 28.4 °F 16.6 °F 24.8 °F 86% 29.90 in 2.0 mi East 16.1 mph - 0.00 in Snow Light Snow
4:34 AM 28.4 °F 17.5 °F 24.8 °F 86% 29.90 in 4.0 mi East 13.8 mph - 0.00 in Snow Light Snow
4:53 AM 28.0 °F 17.5 °F 25.0 °F 88% 29.97 in 5.0 mi East 12.7 mph - 0.00 in Snow Light Snow
5:20 AM 28.4 °F 18.0 °F 24.8 °F 86% 29.91 in 1.8 mi ENE 12.7 mph - 0.00 in Snow Light Snow
5:30 AM 28.4 °F 18.5 °F 24.8 °F 86% 29.91 in 1.0 mi ENE 11.5 mph - 0.00 in Snow Light Snow
5:53 AM 28.0 °F 16.5 °F 25.0 °F 88% 29.97 in 1.2 mi ENE 15.0 mph - 0.00 in Snow Light Snow
6:18 AM 28.4 °F 18.0 °F 24.8 °F 86% 29.91 in 1.5 mi ENE 12.7 mph - 0.00 in Snow Light Snow
6:53 AM 28.0 °F 17.0 °F 25.0 °F 88% 29.98 in 2.0 mi NE 13.8 mph - 0.00 in Snow Light Snow
7:10 AM 28.4 °F 16.6 °F 24.8 °F 86% 29.92 in 3.0 mi ENE 16.1 mph - 0.00 in Snow Light Snow
7:30 AM 28.4 °F 17.0 °F 24.8 °F 86% 29.92 in 3.0 mi NE 15.0 mph - 0.00 in Snow Light Snow
7:40 AM 28.4 °F 17.5 °F 24.8 °F 86% 29.92 in 2.0 mi NE 13.8 mph - 0.00 in Snow Light Snow
7:43 AM 26.6 °F 13.8 °F 24.8 °F 93% 29.93 in 1.8 mi NE 17.3 mph - 0.00 in Snow Light Snow
7:49 AM 26.6 °F 14.7 °F 24.8 °F 93% 29.93 in 1.2 mi NE 15.0 mph - 0.00 in Snow Light Snow
7:53 AM 27.0 °F 14.3 °F 24.1 °F 89% 30.00 in 1.0 mi NE 17.3 mph - 0.01 in Snow Light Snow
8:03 AM 26.6 °F 14.7 °F 24.8 °F 93% 29.93 in 0.5 mi NE 15.0 mph - 0.00 in Fog , Snow Snow
8:30 AM 26.6 °F 14.7 °F 24.8 °F 93% 29.93 in 0.5 mi NE 15.0 mph - 0.00 in Fog , Snow Light Snow
8:53 AM 27.0 °F 14.7 °F 24.1 °F 89% 30.01 in 0.5 mi NE 16.1 mph - 0.00 in Fog , Snow Snow
9:53 AM 26.1 °F 12.0 °F 23.0 °F 88% 30.02 in 0.5 mi NNE 20.7 mph 26.5 mph 0.00 in Fog , Snow Snow
10:35 AM 24.8 °F 10.3 °F 21.2 °F 86% 29.96 in 0.5 mi NNE 20.7 mph 31.1 mph 0.01 in Fog , Snow Light Snow
10:45 AM 24.8 °F 10.7 °F 21.2 °F 86% 29.96 in 0.8 mi NNE 19.6 mph 31.1 mph 0.01 in Snow Light Snow
10:53 AM 24.1 °F 11.5 °F 21.0 °F 88% 30.03 in 1.0 mi NNE 15.0 mph 27.6 mph 0.01 in Snow Light Snow
11:12 AM 23.0 °F 8.7 °F 19.4 °F 86% 29.96 in 1.5 mi NNE 18.4 mph 29.9 mph 0.00 in Snow Light Snow
11:31 AM 21.2 °F 4.5 °F 17.6 °F 86% 29.95 in 1.2 mi NNE 24.2 mph 33.4 mph 0.00 in Snow Light Snow
11:53 AM 21.9 °F 6.2 °F 18.0 °F 85% 30.02 in 1.2 mi NNE 21.9 mph 28.8 mph 0.00 in Snow Light Snow
12:07 PM 21.2 °F 6.0 °F 17.6 °F 86% 29.95 in 0.8 mi North 19.6 mph 31.1 mph 0.00 in Snow Light Snow
12:11 PM 21.2 °F 5.2 °F 17.6 °F 86% 29.95 in 0.5 mi NNE 21.9 mph 29.9 mph 0.00 in Fog , Snow Light Snow
12:27 PM 19.4 °F 3.2 °F 17.6 °F 93% 29.95 in 0.5 mi North 20.7 mph 29.9 mph 0.00 in Fog , Snow Snow
12:53 PM 19.9 °F 3.9 °F 16.0 °F 85% 30.01 in 0.5 mi North 20.7 mph 27.6 mph 0.00 in Fog , Snow Snow
1:47 PM 19.4 °F 4.1 °F 15.8 °F 86% 29.94 in 0.8 mi North 18.4 mph 27.6 mph 0.00 in Snow Light Snow
1:53 PM 19.0 °F 2.7 °F 14.0 °F 81% 30.01 in 0.8 mi North 20.7 mph 26.5 mph 0.00 in Snow Light Snow
2:05 PM 17.6 °F 0.5 °F 14.0 °F 86% 29.94 in 1.0 mi North 21.9 mph 27.6 mph 0.00 in Snow Light Snow
2:53 PM 18.0 °F 0.2 °F 12.9 °F 81% 30.03 in 1.0 mi North 24.2 mph 29.9 mph 0.00 in Snow Light Snow
3:22 PM 17.6 °F 0.1 °F 12.2 °F 79% 29.97 in 0.8 mi North 23.0 mph 31.1 mph 0.00 in Snow Light Snow
3:31 PM 17.6 °F 0.9 °F 12.2 °F 79% 29.97 in 1.0 mi North 20.7 mph 28.8 mph 0.00 in Snow Light Snow
3:49 PM 17.6 °F 1.3 °F 12.2 °F 79% 29.98 in 0.8 mi North 19.6 mph 29.9 mph 0.00 in Snow Light Snow
3:53 PM 17.1 °F -0.3 °F 12.9 °F 84% 30.05 in 0.8 mi North 21.9 mph 27.6 mph 0.00 in Snow Light Snow
4:25 PM 17.6 °F 0.5 °F 12.2 °F 79% 29.99 in 1.0 mi North 21.9 mph 28.8 mph 0.00 in Snow Light Snow
4:48 PM 17.6 °F 0.5 °F 12.2 °F 79% 30.00 in 1.5 mi North 21.9 mph 28.8 mph 0.00 in Snow Light Snow
4:53 PM 17.1 °F -0.6 °F 12.0 °F 81% 30.08 in 1.2 mi North 23.0 mph 28.8 mph 0.00 in Snow Light Snow
5:13 PM 17.6 °F 0.9 °F 12.2 °F 79% 30.01 in 1.0 mi North 20.7 mph 29.9 mph 0.00 in Snow Light Snow
5:53 PM 17.1 °F 1.0 °F 12.9 °F 84% 30.09 in 1.2 mi North 18.4 mph 26.5 mph 0.00 in Snow Light Snow
6:32 PM 15.8 °F -0.6 °F 10.4 °F 79% 30.03 in 1.8 mi North 18.4 mph - 0.00 in Snow Light Snow
6:37 PM 15.8 °F -1.1 °F 10.4 °F 79% 30.03 in 2.0 mi North 19.6 mph - 0.00 in Snow Light Snow
6:53 PM 14.0 °F -3.4 °F 9.0 °F 80% 30.11 in 1.8 mi North 19.6 mph - 0.00 in Snow Light Snow
7:07 PM 12.2 °F -4.8 °F 8.6 °F 85% 30.04 in 3.0 mi NNW 17.3 mph 26.5 mph 0.00 in Snow Light Snow
7:22 PM 12.2 °F -3.7 °F 6.8 °F 79% 30.04 in 2.5 mi NNW 15.0 mph 24.2 mph 0.00 in Snow Light Snow
7:31 PM 10.4 °F -7.7 °F 6.8 °F 85% 30.04 in 4.0 mi NNW 18.4 mph - 0.00 in Snow Light Snow
7:53 PM 10.9 °F -7.9 °F 3.9 °F 73% 30.13 in 7.0 mi NNW 20.7 mph 25.3 mph 0.00 in Snow Light Snow
8:53 PM 8.1 °F -10.7 °F -0.0 °F 70% 30.13 in 9.0 mi NNW 18.4 mph - 0.00 in Snow Light Snow
9:53 PM 6.1 °F -12.2 °F -0.9 °F 73% 30.13 in 10.0 mi NNW 16.1 mph - 0.00 in   Overcast
10:53 PM 3.9 °F -14.3 °F -0.9 °F 80% 30.12 in 10.0 mi NNW 15.0 mph - 0.00 in   Overcast
11:53 PM 3.0 °F -13.3 °F -2.9 °F 76% 30.12 in 10.0 mi NNW 11.5 mph - N/A   Overcast